EW6162 Weather Reports


Display with metric or nautical units.
time (UTC)temp
F
wind
direction
speed
MPH
gust
MPH
rain 1hr
in
rain 24hr
in
rain mn
in
humidity
%
barometer
mb
20260508214020 70 203 4.0 10.0 0.00 0.01 0.01 38 1011.7
20260508213020 70 270 3.0 8.0 0.00 0.01 0.01 39 1011.4
20260508212040 70 315 4.0 10.0 0.00 0.01 0.01 37 1011.4
20260508211020 70 203 4.0 12.0 0.00 0.01 0.01 36 1011.4
20260508210040 69 315 5.0 9.0 0.00 0.01 0.01 35 1011.4
20260508205020 70 315 3.0 9.0 0.00 0.01 0.01 39 1011.6
20260508204100 70 293 5.0 10.0 0.00 0.01 0.01 35 1011.8
20260508203020 69 270 4.0 10.0 0.00 0.01 0.01 37 1011.8
20260508202020 69 270 7.0 10.0 0.00 0.01 0.01 35 1011.9
20260508201020 70 225 3.0 8.0 0.00 0.01 0.01 33 1012.1
20260508200019 69 180 3.0 8.0 0.00 0.01 0.01 34 1012.6
20260508195020 69 203 4.0 9.0 0.00 0.01 0.01 36 1013.0
20260508194020 69 203 6.0 11.0 0.00 0.01 0.01 34 1013.2
20260508193020 70 180 3.0 7.0 0.00 0.01 0.01 35 1013.4
20260508192020 70 90 2.0 4.0 0.00 0.01 0.01 32 1013.5
20260508191020 70 0 2.0 4.0 0.00 0.01 0.01 30 1013.5
20260508190040 69 68 2.0 8.0 0.00 0.01 0.01 31 1013.7
20260508185020 69 248 2.0 4.0 0.00 0.01 0.01 31 1013.9
20260508184020 68 180 2.0 6.0 0.00 0.01 0.01 32 1014.1
20260508183019 67 135 3.0 7.0 0.00 0.01 0.01 29 1014.1
20260508182040 67 180 4.0 7.0 0.00 0.01 0.01 29 1014.2
20260508181020 68 135 4.0 9.0 0.00 0.01 0.01 35 1014.2
20260508180020 67 248 2.0 4.0 0.00 0.01 0.01 38 1014.4
20260508175040 66 293 3.0 4.0 0.00 0.01 0.01 37 1014.4
20260508174020 66 113 2.0 6.0 0.00 0.01 0.01 38 1014.6
20260508173019 66 113 3.0 7.0 0.00 0.01 0.01 34 1014.8
20260508172019 66 90 3.0 10.0 0.00 0.01 0.01 45 1015.1
20260508171020 65 293 2.0 5.0 0.00 0.01 0.01 43 1015.3
20260508170040 64 293 4.0 7.0 0.00 0.01 0.01 50 1015.5
20260508165019 64 158 1.0 4.0 0.00 0.01 0.01 46 1015.7
20260508164020 65 45 4.0 9.0 0.00 0.01 0.01 51 1016.0
20260508163039 64 68 3.0 7.0 0.00 0.01 0.01 49 1016.1
20260508162020 63 248 2.0 5.0 0.00 0.01 0.01 54 1016.2
20260508161039 62 203 2.0 4.0 0.00 0.01 0.01 50 1016.3
20260508160020 61 180 3.0 4.0 0.00 0.01 0.01 46 1016.5
20260508155019 61 113 3.0 8.0 0.00 0.01 0.01 51 1016.7
20260508154019 60 293 3.0 5.0 0.00 0.01 0.01 55 1016.8
20260508153019 59 225 2.0 4.0 0.00 0.01 0.01 52 1016.9
20260508152019 58 203 2.0 4.0 0.00 0.02 0.01 59 1017.0
20260508151019 57 158 2.0 4.0 0.00 0.02 0.01 65 1017.1
20260508150019 54 225 1.0 5.0 0.00 0.04 0.01 33 1016.8
20260508145019 52 158 2.0 5.0 0.00 0.04 0.01 2 1016.9
20260508144020 52 203 2.0 4.0 0.00 0.04 0.01 1 1016.9
20260508143019 51 225 2.0 4.0 0.00 0.04 0.01 1 1016.9
20260508142019 51 225 2.0 4.0 0.00 0.04 0.01 1 1017.0
20260508141019 50 135 1.0 3.0 0.00 0.05 0.01 1 1016.9
20260508140019 49 135 2.0 3.0 0.00 0.05 0.01 1 1017.0
20260508135020 48 135 2.0 4.0 0.00 0.05 0.01 2 1017.0
20260508134019 47 113 1.0 2.0 0.00 0.05 0.01 2 1017.0
20260508133019 46 113 1.0 3.0 0.00 0.05 0.01 3 1017.0
20260508132019 45 45 1.0 3.0 0.00 0.05 0.01 4 1017.0
20260508131019 45 45 2.0 4.0 0.00 0.05 0.01 4 1016.8
20260508130019 44 45 1.0 3.0 0.00 0.05 0.01 5 1016.7
20260508125019 43 90 1.0 2.0 0.00 0.05 0.01 6 1016.8
20260508124019 43 90 1.0 2.0 0.00 0.05 0.01 6 1016.9
20260508123039 42 90 1.0 3.0 0.00 0.05 0.01 7 1016.9
20260508122021 42 0 1.0 3.0 0.00 0.05 0.01 7 1016.8
20260508121019 41 113 2.0 4.0 0.00 0.05 0.01 8 1016.5
20260508120019 41 0.0 2.0 0.01 0.05 0.01 9 1016.5
20260508115021 40 0.0 1.0 0.01 0.05 0.01 10 1016.3
20260508114021 39 0.0 2.0 0.01 0.05 0.01 11 1016.2
20260508113021 39 0.0 1.0 0.01 0.05 0.01 11 1016.0
20260508112021 38 0.0 1.0 0.01 0.05 0.01 12 1015.8
20260508111019 38 0.0 0.0 0.01 0.05 0.01 14 1015.6
20260508110039 38 0.0 0.0 0.00 0.04 0.00 15 1015.5
20260508105041 38 0.0 1.0 0.00 0.04 0.00 16 1015.4
20260508104021 38 0.0 0.0 0.00 0.04 0.00 15 1015.2
20260508103021 38 0.0 1.0 0.00 0.04 0.00 14 1015.2
20260508102021 39 0.0 0.0 0.00 0.04 0.00 13 1015.1
20260508101021 39 0.0 0.0 0.00 0.04 0.00 13 1014.8
20260508100021 39 0.0 0.0 0.00 0.04 0.00 13 1014.9
20260508095021 38 0.0 0.0 0.00 0.05 0.00 13 1014.8
20260508094020 38 0.0 0.0 0.00 0.05 0.00 15 1014.7
20260508093019 38 0.0 0.0 0.00 0.05 0.00 16 1014.6
20260508092020 39 0.0 0.0 0.00 0.05 0.00 17 1014.6
20260508091021 39 0.0 0.0 0.00 0.05 0.00 17 1014.7
20260508090019 39 0.0 0.0 0.00 0.05 0.00 16 1014.5
20260508085021 40 0.0 0.0 0.00 0.05 0.00 15 1014.6
20260508084020 40 0.0 0.0 0.00 0.05 0.00 13 1014.4
20260508083020 40 0.0 0.0 0.00 0.06 0.00 12 1014.4
20260508082021 40 0.0 0.0 0.00 0.06 0.00 16 1014.5
20260508081021 41 0.0 0.0 0.00 0.06 0.00 17 1014.5
20260508080040 41 0.0 0.0 0.00 0.07 0.00 14 1014.4
20260508075020 42 225 1.0 1.0 0.00 0.07 0.00 13 1014.4
20260508074021 42 225 1.0 1.0 0.00 0.07 0.00 12 1014.4
20260508073020 42 0.0 0.0 0.00 0.07 0.00 16 1014.4
20260508072020 43 0.0 0.0 0.00 0.07 0.00 13 1014.5
20260508071020 43 0.0 0.0 0.00 0.07 0.00 12 1014.4
20260508070020 44 0.0 0.0 0.00 0.07 0.00 12 1014.4
20260508065020 44 0.0 0.0 0.00 0.07 0.00 10 1014.3
20260508064020 44 0.0 0.0 0.00 0.07 0.00 10 1014.3
20260508063020 45 225 1.0 2.0 0.00 0.07 0.00 7 1014.3
20260508062020 44 158 2.0 4.0 0.00 0.07 0.00 8 1014.4
20260508061020 43 0.0 1.0 0.00 0.07 0.00 11 1014.3
20260508060020 43 0.0 1.0 0.00 0.07 0.00 10 1014.2
20260508055020 43 158 1.0 2.0 0.00 0.08 0.00 10 1014.2
20260508054020 42 158 1.0 5.0 0.00 0.08 0.00 13 1014.3
20260508053020 42 0.0 2.0 0.00 0.08 0.00 18 1014.2
20260508052019 42 158 1.0 2.0 0.00 0.08 0.00 20 1014.1
20260508051019 43 0.0 2.0 0.00 0.08 0.00 17 1014.2
20260508050019 43 158 1.0 2.0 0.00 0.08 0.00 20 1014.1
20260508045019 44 158 1.0 1.0 0.00 0.08 0.00 18 1013.9
20260508044019 44 0.0 1.0 0.00 0.08 0.00 17 1013.8
20260508043019 45 0.0 1.0 0.00 0.08 0.00 17 1013.8
20260508042019 45 158 1.0 2.0 0.00 0.08 0.00 16 1013.7
20260508041019 45 158 1.0 2.0 0.00 0.08 0.00 17 1013.6
20260508040021 45 0.0 0.0 0.00 0.08 0.00 21 1013.5
20260508035020 46 0.0 1.0 0.00 0.08 0.08 19 1013.4
20260508034020 46 0.0 0.0 0.00 0.08 0.08 18 1013.5
20260508033020 47 0.0 1.0 0.00 0.08 0.08 13 1013.3
20260508032020 46 0.0 2.0 0.00 0.08 0.08 19 1013.4
20260508031020 47 0.0 1.0 0.00 0.08 0.08 18 1013.5
20260508030041 47 158 1.0 2.0 0.00 0.09 0.08 19 1013.4
20260508025020 47 0.0 1.0 0.00 0.09 0.08 24 1013.3
20260508024020 47 0.0 1.0 0.00 0.09 0.08 28 1013.2
20260508023020 48 0.0 1.0 0.00 0.09 0.08 27 1013.0
20260508022020 49 158 1.0 1.0 0.00 0.09 0.08 27 1012.9
20260508021020 49 0.0 1.0 0.00 0.09 0.08 22 1012.7
20260508020020 50 0.0 1.0 0.00 0.09 0.08 29 1012.7
20260508015020 50 0.0 1.0 0.00 0.09 0.08 32 1012.7
20260508014020 51 0.0 1.0 0.00 0.09 0.08 32 1012.6
20260508013020 52 0.0 1.0 0.00 0.09 0.08 35 1012.3
20260508012020 53 135 1.0 2.0 0.00 0.10 0.08 35 1012.3
20260508011020 54 0.0 1.0 0.00 0.10 0.08 39 1012.1
20260508010020 55 135 1.0 2.0 0.00 0.10 0.08 38 1011.9
20260508005020 56 135 1.0 2.0 0.00 0.10 0.08 39 1012.0
20260508004022 57 135 1.0 2.0 0.00 0.10 0.08 38 1011.8
20260508003020 57 135 1.0 3.0 0.00 0.10 0.08 38 1011.8
20260508002020 58 135 2.0 4.0 0.00 0.10 0.08 41 1011.6
20260508001020 58 135 2.0 3.0 0.00 0.11 0.08 40 1011.6
20260508000059 59 135 3.0 6.0 0.00 0.13 0.08 43 1011.6
20260507235020 59 135 3.0 7.0 0.00 0.15 0.08 45 1011.7
20260507234020 60 158 4.0 8.0 0.00 0.15 0.08 50 1011.6
20260507233040 60 90 3.0 4.0 0.00 0.17 0.08 49 1011.6
20260507232020 60 68 3.0 5.0 0.00 0.17 0.08 48 1011.7
20260507231040 60 135 1.0 3.0 0.00 0.17 0.08 45 1011.7
20260507230020 59 135 3.0 9.0 0.00 0.17 0.08 47 1011.7
20260507225020 59 135 2.0 4.0 0.00 0.17 0.08 48 1011.6
20260507224020 60 135 4.0 7.0 0.00 0.17 0.08 51 1011.8
20260507223020 60 158 3.0 5.0 0.00 0.17 0.08 53 1011.8
20260507222020 60 158 3.0 6.0 0.00 0.17 0.08 55 1011.8
20260507221019 60 135 3.0 7.0 0.00 0.17 0.08 58 1011.6
20260507220019 61 180 3.0 7.0 0.00 0.17 0.08 63 1011.6
20260507215020 61 158 4.0 7.0 0.00 0.17 0.08 66 1011.5
20260507214100 62 180 3.0 6.0 0.00 0.17 0.08 68 1011.4